CW6344 Weather Reports


Display with metric or nautical units.
time (UTC)temp
F
wind
direction
speed
MPH
gust
MPH
rain 1hr
in
rain 24hr
in
rain mn
in
humidity
%
barometer
mb
20260904165411 86 279 0.0 0.0 0.00 1.61 1.59 78 1013.8
20260904164441 87 274 0.0 1.0 0.00 1.61 1.59 73 1013.8
20260904163411 86 264 2.0 3.0 0.00 1.61 1.59 73 1013.9
20260904162411 86 12 1.0 3.0 0.00 1.61 1.59 73 1014.0
20260904161412 85 265 0.0 2.0 0.00 1.61 1.59 75 1014.0
20260904160511 85 265 0.0 3.0 0.00 1.61 1.59 76 1014.2
20260904155411 85 252 2.0 2.0 0.00 1.61 1.59 75 1014.3
20260904154411 84 244 0.0 1.0 0.00 1.61 1.59 77 1014.3
20260904153411 83 137 0.0 1.0 0.00 1.61 1.59 78 1014.4
20260904152411 83 245 0.0 2.0 0.00 1.61 1.59 79 1014.4
20260904151416 83 222 0.0 0.0 0.00 1.61 1.59 78 1014.3
20260904150411 83 287 0.0 2.0 0.00 1.61 1.59 80 1014.3
20260904145411 82 277 0.0 1.0 0.00 1.61 1.59 78 1014.3
20260904144411 82 346 0.0 0.0 0.00 1.61 1.59 81 1014.4
20260904143411 82 248 1.0 3.0 0.00 1.61 1.59 81 1014.5
20260904142411 81 258 0.0 3.0 0.00 1.61 1.59 81 1014.6
20260904141412 81 211 0.0 0.0 0.00 1.61 1.59 84 1014.5
20260904140411 80 211 0.0 2.0 0.00 1.61 1.59 86 1014.4
20260904134411 78 213 0.0 1.0 0.00 1.61 1.59 91 1014.4
20260904132412 77 213 0.0 0.0 0.00 1.61 1.59 93 1014.4
20260904131411 76 213 0.0 0.0 0.00 1.61 1.59 93 1014.4
20260904130412 76 213 0.0 0.0 0.00 1.61 1.59 93 1014.4
20260904125412 76 210 0.0 0.0 0.00 1.61 1.59 94 1014.4
20260904124412 76 53 0.0 0.0 0.00 1.61 1.59 94 1014.5
20260904122412 76 49 0.0 0.0 0.00 1.61 1.59 94 1014.7
20260904121412 76 48 0.0 0.0 0.00 1.61 1.59 94 1014.9
20260904120412 75 48 0.0 0.0 0.00 1.61 1.59 94 1014.9
20260904115412 75 48 0.0 0.0 0.00 1.61 1.59 94 1014.8
20260904114412 75 48 0.0 0.0 0.00 1.61 1.59 94 1014.8
20260904113411 75 48 0.0 0.0 0.00 1.61 1.59 94 1014.8
20260904060437 73 233 0.0 1.0 1.29 1.59 1.58 92 1014.4
20260904055437 73 233 0.0 1.0 1.40 1.58 1.56 92 1015.0
20260904054437 73 233 0.0 0.0 1.38 1.54 1.52 92 1016.0
20260904053437 74 233 0.0 2.0 1.22 1.37 1.36 92 1017.1
20260904052507 74 132 0.0 1.0 0.98 1.14 1.12 92 1016.5
20260904051437 74 313 2.0 7.0 0.72 0.79 0.79 91 1015.9
20260904050436 74 38 0.0 9.0 0.32 0.31 0.31 91 1016.4
20260904045437 74 323 3.0 3.0 0.18 0.18 0.16 91 1015.1
20260904044437 73 118 0.0 0.0 0.16 0.16 0.14 90 1014.5
20260904043437 74 5 0.0 0.0 0.16 0.16 0.14 91 1014.4
20260904042507 74 102 1.0 1.0 0.16 0.16 0.14 89 1014.6
20260904040437 78 265 2.0 5.0 0.01 0.01 0.01 84 1014.8
20260904035437 80 186 10.0 10.0 0.00 0.00 0.00 86 1014.2
20260904034437 80 215 4.0 4.0 0.00 0.00 0.00 89 1014.0
20260904033437 81 30 0.0 0.0 0.00 0.00 0.00 89 1013.1
20260904032437 80 30 0.0 0.0 0.00 0.00 0.00 89 1013.3
20260904031437 80 30 0.0 0.0 0.00 0.00 0.00 89 1013.6
20260904030437 80 30 0.0 0.0 0.00 0.00 0.00 89 1013.5
20260904024437 80 30 0.0 0.0 0.00 0.00 0.00 89 1013.8
20260904023437 80 30 0.0 0.0 0.00 0.00 0.00 89 1014.0
20260904022437 80 30 0.0 0.0 0.00 0.00 0.00 88 1014.0
20260904021437 80 30 0.0 0.0 0.00 0.00 0.00 88 1013.9
20260904020507 80 30 0.0 0.0 0.00 0.00 0.00 88 1013.8
20260904015437 81 30 0.0 0.0 0.00 0.00 0.00 88 1013.8
20260904014437 80 30 0.0 0.0 0.00 0.00 0.00 88 1013.9
20260904013437 81 30 0.0 0.0 0.00 0.00 0.00 88 1014.0
20260904012437 81 30 0.0 0.0 0.00 0.00 0.00 88 1014.3
20260904010437 81 30 0.0 0.0 0.00 0.00 0.00 88 1014.6
20260904005437 81 30 0.0 0.0 0.00 0.00 0.00 87 1014.8
20260904004437 81 30 0.0 0.0 0.00 0.00 0.00 87 1014.7
20260904002437 82 30 0.0 0.0 0.00 0.00 0.00 86 1014.6
20260904001437 82 30 0.0 0.0 0.00 0.00 0.00 86 1014.4
20260904000437 83 30 0.0 0.0 0.00 0.00 0.00 85 1014.2
20260903235437 82 30 0.0 0.0 0.00 0.00 0.00 85 1014.1
20260903234437 83 30 0.0 0.0 0.00 0.00 0.00 84 1013.9
20260903232437 84 236 0.0 0.0 0.00 0.00 0.00 83 1013.8
20260903231437 85 223 0.0 0.0 0.00 0.00 0.00 82 1013.9
20260903230437 86 222 0.0 0.0 0.00 0.00 0.00 81 1013.8
20260903225437 86 222 0.0 0.0 0.00 0.00 0.00 80 1013.8
20260903224437 87 222 0.0 0.0 0.00 0.00 0.00 78 1013.7
20260903223437 87 222 0.0 0.0 0.00 0.00 0.00 78 1013.7
20260903222437 87 223 0.0 0.0 0.00 0.00 0.00 79 1013.7
20260903221437 88 223 0.0 0.0 0.00 0.00 0.00 77 1013.8
20260903220437 88 223 0.0 0.0 0.00 0.00 0.00 76 1013.9
20260903215437 88 223 0.0 0.0 0.00 0.00 0.00 75 1013.9
20260903214437 88 222 0.0 0.0 0.00 0.00 0.00 74 1014.0
20260903213437 88 241 0.0 1.0 0.00 0.00 0.00 74 1013.9
20260903212507 89 294 1.0 3.0 0.00 0.00 0.00 73 1014.0
20260903210437 89 225 1.0 2.0 0.00 0.00 0.00 71 1014.0
20260903205437 89 285 2.0 2.0 0.00 0.00 0.00 74 1014.1
20260903204438 89 228 0.0 1.0 0.00 0.00 0.00 69 1014.2
20260903203437 88 284 0.0 1.0 0.00 0.00 0.00 74 1014.4
20260903202437 89 279 1.0 1.0 0.00 0.00 0.00 77 1014.6
20260903201437 88 279 0.0 1.0 0.00 0.00 0.00 75 1014.7
20260903200507 88 288 0.0 2.0 0.00 0.00 0.00 77 1014.7
20260903195437 87 286 2.0 3.0 0.00 0.00 0.00 75 1014.7
20260903194437 87 260 0.0 0.0 0.00 0.00 0.00 78 1015.0
20260903193437 89 228 0.0 0.0 0.00 0.00 0.00 75 1014.9
20260903192437 88 263 0.0 3.0 0.00 0.00 0.00 75 1014.8
20260903191437 88 292 1.0 1.0 0.00 0.00 0.00 76 1014.9
20260903190437 88 233 0.0 1.0 0.00 0.00 0.00 76 1014.9
20260903185437 89 239 2.0 2.0 0.00 0.02 0.00 75 1015.0
20260903184437 88 234 0.0 3.0 0.00 0.02 0.00 77 1015.2
20260903182437 88 302 1.0 3.0 0.00 0.02 0.00 77 1015.4
20260903181437 88 279 0.0 3.0 0.00 0.02 0.00 78 1015.7
20260903180437 88 227 0.0 1.0 0.00 0.02 0.00 78 1015.9
20260903175437 87 295 1.0 2.0 0.00 0.02 0.00 78 1016.1
20260903174437 88 276 0.0 2.0 0.00 0.02 0.00 77 1016.1
20260903173437 87 190 1.0 3.0 0.00 0.02 0.00 79 1016.2
20260903172507 86 275 1.0 2.0 0.00 0.02 0.00 80 1016.3
20260903171437 86 263 1.0 1.0 0.00 0.02 0.00 79 1016.4
20260903170437 86 217 0.0 3.0 0.00 0.02 0.00 78 1016.4